ラ・サグラ彗星

P/2012 S2 ( La Sagra )

English version
Home page
Updated on August 8, 2015

---------------------------------------------------------------------

・ プロフィール

発見日 2012年9月23日
発見光度 18.0等
発見者 La Sagra Sky Survey

・ 写真集

・ 軌道要素

Epoch 2012 Aug. 21.0 TT = JDT 2456160.5
T 2012 Aug. 18.87539 TT                                 MPC
q   1.3711892            (2000.0)            P               Q
n   0.10568229     Peri.  312.07314     +0.99006985     -0.07555223
a   4.4306548      Node    52.60236     +0.12347733     +0.87047458
e   0.6905222      Incl.    8.58183     -0.06719412     +0.48638037
P   9.33
From 357 observations 2012 Sept. 23-Dec. 18, mean residual 0".4.

・ 光度変化

        m1 = 16.2 + 5 logΔ + 10.0 log r(t - 100)

---------------------------------------------------------------------

軌道要素はM.P.E.C. 2013-C52に掲載されたものです。
光度グラフはComet for Windowsで作成したものです。

---------------------------------------------------------------------

Copyright(C) Seiichi Yoshida (comet@aerith.net). All rights reserved.